Terminal Aerodrome Forecast
Issued by NWS

Home | Current Version | Previous Version | Text Only | Print | Product List | Glossary On
Versions: 1 2 3 4 5 6 7 8 9 10 11 12 13 14 15 16 17 18 19 20 21 22
000
FTUS42 KTAE 202320
TAFDHN
TAF
KDHN 202320Z 2100/2124 17008KT P6SM VCSH BKN060
     FM210200 19006KT P6SM OVC010
     FM210500 18006KT 3SM -RA BR OVC005
     FM211000 18006KT 1SM RA BR OVC003
     FM211500 19012G20KT 4SM -RA OVC010
     FM211800 21013G19KT P6SM OVC030=

USA.gov is the U.S. government's official web portal to all federal, state and local government web resources and services.